Palm Springs, CA

9:14 PM PDT on May 22, 2018 (GMT -0700)
Palm Springs International

Weather History for KPSP - May, 2013

Change the Weather History Date:

Saturday, May 18, 2013

  Actual Average Record
Temperature  
Mean Temperature 80 °F 80 °F  
Max Temperature 94 °F 94 °F 110 °F (2008)
Min Temperature 65 °F 65 °F 43 °F (1962)
Degree Days  
Heating Degree Days 0 0  
Month to date heating degree days 0 0  
Since 1 July heating degree days 760 872  
Cooling Degree Days 15 15  
Month to date cooling degree days 284 226  
Year to date cooling degree days 814 546  
Growing Degree Days 28 (Base 50)    
Moisture  
Dew Point 48 °F    
Average Humidity 41    
Maximum Humidity 63    
Minimum Humidity 18    
Precipitation  
Precipitation 0.00 in 0.00 in 0.00 in (2018)
Month to date precipitation T 0.11  
Year to date precipitation 0.97 2.86  
Since 1 July precipitation 2.19  
Snow  
Snow 0.00 in - - ()
Month to date snowfall 0.0  
Year to date snowfall 0.0  
Snow Depth 0.00 in    
Sea Level Pressure  
Sea Level Pressure 29.83 in    
Wind  
Wind Speed 6 mph (NW)    
Max Wind Speed 21 mph    
Max Gust Speed 25 mph    
Visibility 10 miles    
Events      
T = Trace of Precipitation, MM = Missing Value Source: NWS Daily Summary

Daily Weather History Graph

Daily Weather History Graph

Search for Another Location

Airport or City:

Astronomy

May. 18, 2013 Rise Set
Actual Time 5:42 AM PDT 7:42 PM PDT
Civil Twilight 5:14 AM PDT 8:10 PM PDT
Nautical Twilight 4:41 AM PDT 8:44 PM PDT
Astronomical Twilight 4:05 AM PDT 9:20 PM PDT
Moon 1:08 PM PDT (5/18) 1:17 AM PDT (5/18)
Length of Visible Light 14h 55m
Length of Day
14h 00m
First Quarter, 56% of the Moon is Illuminated
May 18
First Quarter
May 24
Full
May 31
Last Quarter
Jun 8
New
Jun 16
First Quarter

Hourly Weather History & Observations

Time (PDT) Temp. Dew Point Humidity Pressure Visibility Wind Dir Wind Speed Gust Speed Precip Events Conditions
12:53 AM 73.0 °F 48.0 °F 41% 29.81 in 10.0 mi Variable 3.5 mph - N/A   Clear
1:53 AM 69.1 °F 51.1 °F 53% 29.81 in 10.0 mi SE 4.6 mph - N/A   Clear
2:53 AM 69.1 °F 51.1 °F 53% 29.81 in 10.0 mi SSE 3.5 mph - N/A   Clear
3:53 AM 66.9 °F 51.1 °F 57% 29.81 in 10.0 mi SE 3.5 mph - N/A   Clear
4:53 AM 64.9 °F 51.1 °F 61% 29.82 in 10.0 mi Calm Calm - N/A   Clear
5:53 AM 68.0 °F 48.9 °F 50% 29.85 in 10.0 mi West 5.8 mph - N/A   Clear
6:53 AM 66.9 °F 52.0 °F 59% 29.88 in 10.0 mi Calm Calm - N/A   Clear
7:53 AM 72.0 °F 48.0 °F 43% 29.88 in 10.0 mi WNW 9.2 mph 16.1 mph N/A   Clear
8:53 AM 75.0 °F 48.0 °F 38% 29.89 in 10.0 mi NW 11.5 mph - N/A   Clear
9:53 AM 78.1 °F 46.9 °F 33% 29.89 in 10.0 mi WNW 9.2 mph - N/A   Clear
10:53 AM 82.0 °F 46.0 °F 28% 29.89 in 10.0 mi North 9.2 mph - N/A   Clear
12:53 PM 84.9 °F 45.0 °F 25% 29.86 in 10.0 mi Calm Calm - N/A   Clear
1:53 PM 89.1 °F 44.1 °F 21% 29.84 in 10.0 mi Variable 6.9 mph - N/A   Clear
2:53 PM 91.0 °F 41.0 °F 17% 29.82 in 10.0 mi Variable 3.5 mph - N/A   Clear
3:53 PM 91.9 °F 45.0 °F 20% 29.80 in 10.0 mi NNW 13.8 mph - N/A   Clear
4:53 PM 91.0 °F 46.9 °F 22% 29.78 in 10.0 mi NNW 17.3 mph 21.9 mph N/A   Clear
5:53 PM 90.0 °F 48.0 °F 24% 29.77 in 10.0 mi NW 21.9 mph 26.5 mph N/A   Clear
6:53 PM 87.1 °F 48.0 °F 26% 29.78 in 10.0 mi NNW 25.3 mph 31.1 mph N/A   Clear
7:53 PM 84.0 °F 44.1 °F 25% 29.79 in 10.0 mi NW 20.7 mph 28.8 mph N/A   Clear
8:53 PM 82.9 °F 46.0 °F 27% 29.80 in 10.0 mi NW 24.2 mph 31.1 mph N/A   Clear
10:53 PM 79.0 °F 50.0 °F 36% 29.81 in 10.0 mi NW 16.1 mph - N/A   Clear
11:53 PM 75.0 °F 51.1 °F 43% 29.81 in 10.0 mi NW 16.1 mph 21.9 mph N/A   Clear